N2XGL-1 Weather Reports


Display with metric or nautical units.
time (UTC)temp
F
wind
direction
speed
MPH
gust
MPH
rain 1hr
in
rain 24hr
in
rain mn
in
humidity
%
barometer
mb
20260906000706 84 270 4.0 9.0 0.00 0.00 0.00 39 1002.2
20260905235826 85 270 5.0 10.0 0.00 0.00 0.00 34 1002.2
20260905234840 86 270 4.0 6.0 0.00 0.00 0.00 32 1002.1
20260905234006 86 315 5.0 12.0 0.00 0.00 0.00 31 1002.0
20260905233011 87 0 0.0 2.0 0.00 0.00 0.00 32 1002.0
20260905232011 88 22 1.0 2.0 0.00 0.00 0.00 32 1001.9
20260905231021 88 270 1.0 3.0 0.00 0.00 0.00 28 1001.8
20260905230147 88 248 1.0 4.0 0.00 0.00 0.00 26 1001.7
20260905225245 89 315 1.0 3.0 0.00 0.00 0.00 26 1001.7
20260905224435 89 0 2.0 6.0 0.00 0.00 0.00 28 1001.7
20260905223510 89 0 2.0 6.0 0.00 0.00 0.00 27 1001.7
20260905222551 89 0 2.0 5.0 0.00 0.00 0.00 27 1001.7
20260905221736 90 0 2.0 6.0 0.00 0.00 0.00 26 1001.7
20260905220046 91 90 4.0 8.0 0.00 0.00 0.00 25 1001.7
20260905215131 92 68 4.0 7.0 0.00 0.00 0.00 22 1002.0
20260905213430 93 68 4.0 9.0 0.00 0.00 0.00 25 1002.1
20260905212631 93 0 3.0 9.0 0.00 0.00 0.00 27 1002.1
20260905211741 93 0 4.0 12.0 0.00 0.00 0.00 26 1002.2
20260905210851 93 45 2.0 6.0 0.00 0.00 0.00 22 1002.4
20260905205920 92 135 1.0 4.0 0.00 0.00 0.00 27 1002.6
20260905204221 91 90 3.0 6.0 0.00 0.00 0.00 24 1002.8
20260905203320 92 90 2.0 9.0 0.00 0.00 0.00 25 1002.8
20260905202321 93 68 3.0 6.0 0.00 0.00 0.00 30 1002.8
20260905201516 92 158 2.0 5.0 0.00 0.00 0.00 29 1002.9
20260905200646 92 158 3.0 7.0 0.00 0.00 0.00 28 1002.9
20260905194851 93 45 4.0 8.0 0.00 0.00 0.00 25 1003.1
20260905194051 93 22 2.0 4.0 0.00 0.00 0.00 26 1003.1
20260905193205 92 45 4.0 7.0 0.00 0.00 0.00 24 1003.4
20260905192211 92 112 4.0 7.0 0.00 0.00 0.00 28 1003.4
20260905191321 92 135 4.0 6.0 0.00 0.00 0.00 26 1003.5
20260905190415 91 202 3.0 4.0 0.00 0.00 0.00 29 1003.5
20260905185606 91 180 2.0 5.0 0.00 0.00 0.00 27 1003.6
20260905184710 91 158 2.0 4.0 0.00 0.00 0.00 29 1003.7
20260905183748 90 180 3.0 6.0 0.00 0.00 0.00 30 1003.8
20260905182751 89 158 2.0 6.0 0.00 0.00 0.00 31 1004.1
20260905181950 87 135 2.0 6.0 0.00 0.00 0.00 33 1004.1
20260905181127 88 112 3.0 7.0 0.00 0.00 0.00 34 1004.1
20260905180258 89 135 3.0 7.0 0.00 0.00 0.00 30 1004.3
20260905175411 88 45 2.0 4.0 0.00 0.00 0.00 33 1004.4
20260905174525 86 135 5.0 10.0 0.00 0.00 0.00 32 1004.5
20260905173705 86 135 4.0 7.0 0.00 0.00 0.00 37 1004.5
20260905172826 83 135 2.0 10.0 0.00 0.00 0.00 39 1004.5
20260905171941 83 112 3.0 7.0 0.00 0.00 0.00 37 1004.6
20260905171126 82 68 3.0 6.0 0.00 0.00 0.00 37 1004.6
20260905170236 82 90 3.0 6.0 0.00 0.00 0.00 40 1004.6
20260905165356 81 112 2.0 7.0 0.00 0.00 0.00 40 1004.7
20260905164441 80 112 2.0 5.0 0.00 0.00 0.00 42 1004.7
20260905163546 79 90 3.0 7.0 0.00 0.00 0.00 45 1004.7
20260905162621 78 45 2.0 4.0 0.00 0.00 0.00 46 1004.7
20260905161656 78 68 1.0 3.0 0.00 0.00 0.00 44 1004.8
20260905160706 78 112 2.0 5.0 0.00 0.00 0.00 45 1004.7
20260905155713 78 45 2.0 4.0 0.00 0.00 0.00 46 1004.6
20260905153941 77 112 3.0 6.0 0.00 0.00 0.00 47 1004.6
20260905152951 77 112 1.0 3.0 0.00 0.00 0.00 52 1004.5
20260905151046 73 112 1.0 4.0 0.00 0.00 0.00 56 1004.5
20260905150236 69 135 1.0 2.0 0.00 0.00 0.00 61 1004.5
20260905145251 67 180 1.0 2.0 0.00 0.00 0.00 61 1004.6
20260905144406 65 0 0.0 1.0 0.00 0.00 0.00 70 1004.7
20260905143515 63 0 0.0 2.0 0.00 0.00 0.00 73 1004.8
20260905142621 62 225 1.0 2.0 0.00 0.00 0.00 74 1004.8
20260905141626 60 248 1.0 2.0 0.00 0.00 0.00 75 1004.8
20260905140759 60 0 0.0 1.0 0.00 0.00 0.00 72 1004.8
20260905134930 59 0 0.0 2.0 0.00 0.00 0.00 70 1004.7
20260905134117 58 270 1.0 2.0 0.00 0.00 0.00 70 1004.6
20260905133532 58 0 0.0 2.0 0.00 0.00 0.00 73 1004.8
20260905133305 58 0 0.0 2.0 0.00 0.00 0.00 73 1004.8
20260905132350 58 0 0.0 1.0 0.00 0.00 0.00 71 1004.7
20260905130621 58 0 0.0 2.0 0.00 0.00 0.00 69 1004.5
20260905125620 58 0 0.0 0.0 0.00 0.00 0.00 68 1004.4
20260905124700 58 202 1.0 2.0 0.00 0.00 0.00 70 1004.2
20260905123726 58 0 0.0 1.0 0.00 0.00 0.00 70 1004.2
20260905121911 59 158 1.0 2.0 0.00 0.00 0.00 69 1004.0
20260905121036 59 0 0.0 1.0 0.00 0.00 0.00 67 1004.0
20260905120211 59 0 0.0 2.0 0.00 0.00 0.00 65 1004.0
20260905115458 59 0 0.0 2.0 0.00 0.00 0.00 65 1003.9
20260905115320 59 0 0.0 2.0 0.00 0.00 0.00 65 1003.9
20260905114346 59 315 1.0 2.0 0.00 0.00 0.00 65 1003.9
20260905113400 60 270 1.0 2.0 0.00 0.00 0.00 68 1004.0
20260905112421 60 158 1.0 3.0 0.00 0.00 0.00 65 1004.1
20260905111616 60 158 1.0 2.0 0.00 0.00 0.00 62 1004.2
20260905110746 60 292 1.0 2.0 0.00 0.00 0.00 63 1004.1
20260905110014 61 0 0.0 1.0 0.00 0.00 0.00 64 1004.0
20260905105831 61 0 0.0 1.0 0.00 0.00 0.00 64 1004.0
20260905104926 61 248 1.0 2.0 0.00 0.00 0.00 62 1003.9
20260905103926 61 202 1.0 2.0 0.00 0.00 0.00 61 1004.0
20260905102931 62 0 0.0 1.0 0.00 0.00 0.00 60 1003.7
20260905102119 62 0 0.0 1.0 0.00 0.00 0.00 61 1003.8
20260905101241 62 45 1.0 2.0 0.00 0.00 0.00 66 1003.8
20260905100331 62 90 2.0 5.0 0.00 0.00 0.00 65 1003.7
20260905095506 62 0 0.0 2.0 0.00 0.00 0.00 63 1003.4
20260905094631 62 0 0.0 1.0 0.00 0.00 0.00 60 1003.3
20260905093814 63 0 0.0 2.0 0.00 0.00 0.00 59 1003.1
20260905092916 63 270 1.0 3.0 0.00 0.00 0.00 57 1003.0
20260905092434 64 0 0.0 1.0 0.00 0.00 0.00 59 1003.2
20260905092013 64 0 0.0 1.0 0.00 0.00 0.00 59 1003.2
20260905090135 64 0 0.0 2.0 0.00 0.00 0.00 55 1003.1
20260905085321 65 0 0.0 2.0 0.00 0.00 0.00 54 1003.1
20260905084441 65 0 0.0 1.0 0.00 0.00 0.00 53 1003.0
20260905083516 66 0 0.0 1.0 0.00 0.00 0.00 52 1003.0
20260905082601 66 0 0.0 1.0 0.00 0.00 0.00 52 1003.0
20260905081606 66 45 2.0 4.0 0.00 0.00 0.00 52 1003.0
20260905080621 66 68 2.0 4.0 0.00 0.00 0.00 56 1003.0
20260905075716 67 0 0.0 1.0 0.00 0.00 0.00 51 1002.9
20260905074942 67 0 0.0 1.0 0.00 0.00 0.00 50 1002.8
20260905074900 67 0 0.0 1.0 0.00 0.00 0.00 50 1002.8
20260905073939 68 0 0.0 1.0 0.00 0.00 0.00 48 1002.9
20260905072945 68 0 0.0 0.0 0.00 0.00 0.00 46 1002.8
20260905071956 68 0 0.0 1.0 0.00 0.00 0.00 45 1002.8
20260905071011 69 0 0.0 2.0 0.00 0.00 0.00 44 1002.8
20260905065212 69 270 1.0 3.0 0.00 0.00 0.00 43 1002.7
20260905064246 69 338 2.0 3.0 0.00 0.00 0.00 45 1002.7
20260905063255 68 315 2.0 4.0 0.00 0.00 0.00 44 1002.7
20260905062435 69 315 2.0 4.0 0.00 0.00 0.00 46 1002.8
20260905061521 69 292 1.0 2.0 0.00 0.00 0.00 44 1002.7
20260905060645 69 0 0.0 1.0 0.00 0.00 0.00 43 1002.7
20260905055720 70 270 1.0 2.0 0.00 0.00 0.00 44 1002.6
20260905054859 71 248 1.0 2.0 0.00 0.00 0.00 47 1002.6
20260905053931 71 0 0.0 0.0 0.00 0.00 0.00 43 1002.5
20260905052953 72 0 0.0 1.0 0.00 0.00 0.00 42 1002.4
20260905052031 72 0 0.0 2.0 0.00 0.00 0.00 41 1002.4
20260905051031 73 338 1.0 3.0 0.00 0.00 0.00 41 1002.5
20260905050206 74 338 1.0 2.0 0.00 0.00 0.00 41 1002.6
20260905045320 74 292 1.0 3.0 0.00 0.00 0.00 42 1002.7
20260905044331 74 0 3.0 5.0 0.00 0.00 0.00 44 1002.8
20260905043431 74 0 2.0 3.0 0.00 0.00 0.00 44 1002.8
20260905042506 74 315 1.0 2.0 0.00 0.00 0.00 45 1002.9
20260905041641 74 0 0.0 2.0 0.00 0.00 0.00 43 1002.9
20260905040706 74 0 1.0 4.0 0.00 0.00 0.00 43 1002.8
20260905035836 75 0 1.0 2.0 0.00 0.00 0.00 45 1002.9
20260905034846 75 338 2.0 3.0 0.00 0.00 0.00 47 1002.9
20260905034016 75 158 1.0 2.0 0.00 0.00 0.00 43 1003.2
20260905033026 75 202 1.0 2.0 0.00 0.00 0.00 44 1003.0
20260905031311 74 338 1.0 3.0 0.00 0.00 0.00 42 1002.8
20260905030320 74 315 1.0 2.0 0.00 0.00 0.00 46 1002.7
20260905025426 75 270 2.0 5.0 0.00 0.00 0.00 42 1002.7
20260905024539 75 270 3.0 6.0 0.00 0.00 0.00 40 1002.6
20260905023656 76 270 2.0 3.0 0.00 0.00 0.00 38 1002.4
20260905022825 76 0 0.0 1.0 0.00 0.00 0.00 38 1002.2
20260905021825 77 338 1.0 2.0 0.00 0.00 0.00 37 1002.0
20260905020110 78 0 1.0 4.0 0.00 0.00 0.00 35 1001.7
20260905015241 79 22 1.0 3.0 0.00 0.00 0.00 35 1001.6
20260905014320 80 22 2.0 4.0 0.00 0.00 0.00 35 1001.5
20260905011738 82 22 2.0 4.0 0.00 0.00 0.00 32 1001.4
20260905011636 82 22 2.0 4.0 0.00 0.00 0.00 32 1001.4
20260905010806 83 22 4.0 7.0 0.00 0.00 0.00 30 1001.3
20260905005901 84 45 1.0 3.0 0.00 0.00 0.00 29 1001.1
20260905004935 85 45 1.0 3.0 0.00 0.00 0.00 27 1001.1
20260905004046 86 68 2.0 5.0 0.00 0.00 0.00 28 1001.0
20260905002402 88 90 3.0 8.0 0.00 0.00 0.00 25 1000.9
20260905002231 88 90 3.0 8.0 0.00 0.00 0.00 25 1000.9
20260905001316 89 112 2.0 7.0 0.00 0.00 0.00 26 1000.9